Location: David Mid Texas Observatory
(30.9664°N, 96.2113°W)
Time: 15:32:54
(UTC-06:00)

Tiangong 1 - Visible Passes

Search period start: 18 January 2018 00:00
Search period end: 28 January 2018 00:00
Orbit: 263 x 288 km, 42.8° (Epoch: 18 January)

Date Brightness Start Highest point End Pass type
(mag) Time Alt. Az. Time Alt. Az. Time Alt. Az.
22 Jan 2.7 18:29:24 10° NNW 18:30:39 13° NNE 18:31:34 11° NE visible
23 Jan 2.1 18:28:08 10° NNW 18:30:03 20° NNE 18:31:25 13° ENE visible
24 Jan 1.2 18:26:58 10° NW 18:29:16 35° NNE 18:31:23 11° E visible
25 Jan 0.3 18:25:50 10° NW 18:28:17 80° NNE 18:30:43 10° ESE visible
26 Jan 1.8 18:24:47 10° WNW 18:27:07 40° SW 18:29:25 10° SE visible
27 Jan 3.5 18:23:59 10° W 18:25:46 18° SW 18:27:33 10° S visible
